Regional Weather Roundup
Issued by NWS

Home | Current Version | Previous Version | Text Only | Print | Product List | Glossary Off
Versions: 1 2 3 4 5 6 7 8 9 10 11 12 13 14 15 16 17 18 19 20 21 22 23 24 25 26 27 28 29 30 31 32 33 34 35 36 37 38 39 40 41 42 43 44 45 46 47 48 49 50

000
ASUS45 KCYS 242110
RWRWY

WYOMING REGIONAL WEATHER ROUNDUP
NATIONAL WEATHER SERVICE CHEYENNE WY
300 PM MDT SUN MAY 24 2015

NOTE:  "FAIR" INDICATES FEW OR NO CLOUDS BELOW 12,000 FEET
WITH NO SIGNIFICANT WEATHER AND/OR OBSTRUCTIONS TO VISIBILITY.

WYZ001-242200-
YELLOWSTONE NATIONAL PARK

CITY           SKY/WX    TMP DP  RH WIND       PRES   REMARKS
LK YELLOWSTONE   N/A     51  31  46 MISG      30.02F
W YELLOWSTONE  NOT AVBL

$$
WYZ002>013-054>058-071-098>099-242200-
NORTHERN WYOMING

CITY           SKY/WX    TMP DP  RH WIND       PRES   REMARKS
JACKSON        PTSUNNY   54  39  58 N14G21    29.95R
CODY           CLOUDY    48  46  93 N12       29.99F
GREYBULL       CLOUDY    57  45  64 NW23      29.89F
WORLAND        LGT RAIN  54  48  80 NW21G26   29.90F
SHERIDAN       LGT RAIN  51  49  92 N15       29.96F
BUFFALO        RAIN      48  47  96 N12G26    29.95S FOG
GILLETTE       LGT RAIN  52  49  89 E8        29.90F
HULETT         LGT RAIN  52  50  93 NE9G16    29.93F
NEWCASTLE      FAIR      59  45  58 N3        29.88F

$$
WYZ014>020-022>026-101>103-242200-
CENTRAL WYOMING

CITY           SKY/WX    TMP DP  RH WIND       PRES   REMARKS
BIG PINEY      LGT RAIN  51  40  65 N8        29.93F
PINEDALE       CLOUDY    50  37  62 W8        29.93F
DUBOIS         DRIZZLE   46  37  71 CALM      29.98S
LANDER         LGT RAIN  47  44  90 NW7       29.96F FOG
RIVERTON       LGT RAIN  48  43  82 NW10      29.96F
CASPER         PTSUNNY   55  45  68 N15G21    29.87F
DOUGLAS        LGT RAIN  59  43  55 MISG      29.84F

$$
WYZ021-027>030-104>119-242200-
SOUTHERN WYOMING

CITY           SKY/WX    TMP DP  RH WIND       PRES   REMARKS
EVANSTON       LGT RAIN  49  41  74 W5        29.95F
KEMMERER       RAIN      43  39  87 CALM      29.97S
FORT BRIDGER   CLOUDY    46  45  93 SE6       30.00S
ROCK SPRINGS   LGT RAIN  44  40  85 CALM      29.96F
DIXON          CLOUDY    44  39  85 W7        29.97S
RAWLINS        PTSUNNY   50  38  63 W10       29.92F
SARATOGA       CLOUDY    46  37  71 SW12G25   29.92S THUNDER
LARAMIE        FAIR      52  34  50 SE12      29.88F
CHEYENNE       LGT RAIN  49  37  63 N18       29.88R
TORRINGTON     FAIR      66  46  48 SE9       29.80F
PINE BLUFFS    MOCLDY    59  41  51 E6        29.83F

$$


USA.gov is the U.S. government's official web portal to all federal, state and local government web resources and services.